DF1NIF-13 Weather Reports


time (UTC)temp
F
wind
direction
speed
knots
gust
knots
rain 1hr
in
rain 24hr
in
rain mn
in
humidity
%
barometer
mb
20260831103408 68 322 5.2 12.2 0.00 0.00 0.00 64 969.6
20260831102918 67 324 5.2 13.9 0.00 0.00 0.00 64 969.6
20260831102453 67 303 5.2 13.9 0.00 0.00 0.00 68 969.7
20260831102033 67 292 6.1 13.9 0.00 0.00 0.00 68 969.6
20260831101603 68 211 5.2 13.9 0.00 0.00 0.00 68 969.6
20260831101123 68 243 5.2 13.9 0.00 0.00 0.00 68 969.5
20260831100633 66 306 9.6 19.1 0.00 0.00 0.00 68 969.7
20260831100158 66 310 5.2 9.6 0.00 0.00 0.00 68 969.8
20260831095739 67 336 5.2 11.3 0.00 0.00 0.00 68 969.8
20260831095319 66 315 4.3 12.2 0.00 0.00 0.00 68 969.8
20260831094843 66 293 7.8 12.2 0.00 0.00 0.00 68 969.7
20260831094408 66 113 1.7 12.2 0.00 0.00 0.00 72 969.8
20260831093958 66 113 0.0 9.6 0.00 0.00 0.00 71 969.7
20260831093528 65 240 1.7 11.3 0.00 0.00 0.00 71 970.1
20260831093113 65 87 4.3 7.8 0.00 0.00 0.00 71 969.9
20260831092638 65 87 6.1 11.3 0.00 0.00 0.00 71 970.0
20260831092223 66 328 2.6 11.3 0.00 0.00 0.00 71 969.9
20260831091808 65 330 2.6 7.8 0.00 0.00 0.00 71 969.9
20260831091339 68 114 2.6 7.8 0.00 0.00 0.00 71 970.1
20260831090923 68 94 2.6 21.7 0.00 0.00 0.00 71 969.8
20260831090458 66 292 3.5 9.6 0.00 0.00 0.00 71 970.0
20260831090019 66 355 2.6 13.9 0.00 0.00 0.00 75 969.8
20260831085539 65 331 2.6 13.9 0.00 0.00 0.00 75 969.8
20260831085113 65 333 3.5 6.1 0.00 0.00 0.00 75 969.7
20260831084633 65 305 4.3 7.8 0.00 0.00 0.00 75 969.8
20260831084208 65 307 9.6 13.9 0.00 0.00 0.00 75 969.7
20260831083753 64 307 9.6 13.9 0.00 0.00 0.00 75 969.8
20260831083333 64 329 8.7 19.1 0.00 0.00 0.00 75 969.8
20260831082913 64 321 9.6 23.5 0.00 0.00 0.00 75 969.7
20260831082508 64 350 0.0 23.5 0.00 0.00 0.00 75 969.8
20260831082019 64 263 0.0 23.5 0.00 0.00 0.00 100 970.0
20260831081548 63 284 3.5 12.2 0.00 0.00 0.00 78 969.9
20260831081111 63 310 6.1 12.2 0.00 0.00 0.00 86 969.5
20260831080658 63 207 4.3 17.4 0.00 0.00 0.00 86 969.5
20260831080243 63 328 4.3 9.6 0.00 0.00 0.00 86 969.5
20260831075828 63 328 3.5 23.5 0.00 0.00 0.00 86 969.5
20260831075358 63 328 4.3 23.5 0.00 0.00 0.00 86 969.7
20260831074928 64 113 4.3 6.1 0.00 0.00 0.00 86 969.4
20260831074518 64 113 4.3 6.1 0.00 0.00 0.00 86 969.5
20260831074101 62 73 4.3 7.8 0.00 0.00 0.00 86 969.4
20260831073638 62 262 4.3 4.3 0.00 0.00 0.00 86 969.7
20260831073203 62 187 2.6 4.3 0.00 0.00 0.00 86 969.2
20260831072723 62 308 5.2 0.0 0.00 0.00 0.00 90 969.2
20260831072259 61 355 1.7 6.1 0.00 0.00 0.00 90 969.2
20260831071833 61 297 3.5 2.6 0.00 0.00 0.00 90 969.2
20260831071359 61 307 0.0 2.6 0.00 0.00 0.00 91 969.3
20260831070928 61 307 3.5 6.1 0.00 0.00 0.00 91 969.3
20260831070448 61 307 1.7 7.8 0.00 0.00 0.00 94 969.2
20260831070028 61 307 3.5 7.8 0.00 0.00 0.00 94 969.0
20260831065618 61 307 3.5 11.3 0.00 0.00 0.00 94 968.9
20260831065139 61 307 5.2 6.1 0.00 0.00 0.00 94 968.8
20260831064728 61 307 0.0 13.9 0.00 0.00 0.00 94 968.7
20260831064313 61 307 3.5 13.9 0.00 0.00 0.00 94 968.7
20260831063848 61 307 4.3 17.4 0.00 0.00 0.00 94 968.7
20260831063428 61 104 4.3 17.4 0.00 0.00 0.00 94 968.6
20260831063008 61 104 5.2 7.8 0.00 0.00 0.00 94 968.6
20260831062543 60 104 2.6 7.8 0.00 0.00 0.00 94 968.7
20260831062058 60 104 2.6 4.3 0.00 0.00 0.00 94 968.6
20260831061618 60 104 2.6 4.3 0.00 0.00 0.00 94 968.5
20260831061133 60 104 1.7 7.8 0.00 0.00 0.00 94 968.5
20260831060708 60 104 1.7 7.8 0.00 0.00 0.00 94 968.3
20260831060248 60 104 2.6 7.8 0.00 0.00 0.00 94 968.5
20260831055833 60 104 6.1 7.8 0.00 0.00 0.00 94 968.5
20260831055359 60 104 1.7 7.8 0.00 0.00 0.00 94 968.4
20260831054933 60 104 0.9 4.3 0.00 0.00 0.00 94 968.3
20260831054518 60 104 0.9 0.0 0.00 0.00 0.00 94 968.1
20260831054053 60 104 0.9 0.0 0.00 0.00 0.00 94 968.0
20260831053643 60 104 0.0 0.0 0.00 0.00 0.00 94 968.0
20260831053203 60 104 0.0 0.9 0.00 0.00 0.00 94 967.9
20260831052738 60 104 0.0 0.9 0.00 0.00 0.00 94 968.0
20260831052243 60 104 0.0 0.9 0.00 0.00 0.00 94 967.9
20260831051758 60 104 0.0 0.9 0.00 0.00 0.00 94 967.9
20260831051323 60 104 0.9 0.9 0.00 0.00 0.00 94 967.9
20260831050853 60 104 0.9 0.9 0.00 0.00 0.00 94 967.9
20260831050413 60 104 0.9 7.8 0.00 0.00 0.00 94 967.9
20260831045953 60 104 0.0 0.9 0.00 0.00 0.00 94 968.0
20260831045512 60 104 0.0 0.0 0.00 0.00 0.00 94 967.7
20260831045033 60 104 0.0 0.0 0.00 0.00 0.00 94 967.6
20260831044606 60 104 0.9 0.9 0.00 0.00 0.00 94 967.5
20260831044138 60 104 0.9 0.9 0.00 0.00 0.00 94 967.7
20260831043703 60 104 0.9 0.9 0.00 0.00 0.00 94 967.6
20260831043238 60 104 0.9 0.9 0.00 0.00 0.00 94 967.5
20260831042758 60 104 0.9 0.9 0.00 0.00 0.00 94 967.6
20260831042308 60 104 0.9 4.3 0.00 0.00 0.00 94 967.4
20260831041858 60 102 3.5 0.0 0.00 0.00 0.00 94 967.3
20260831041423 60 102 1.7 0.0 0.00 0.00 0.00 94 967.7
20260831041003 60 103 0.9 0.0 0.00 0.00 0.00 94 967.5
20260831040533 60 103 0.9 0.0 0.00 0.00 0.00 94 967.7
20260831040128 60 103 0.9 0.0 0.00 0.00 0.00 94 967.7
20260831035643 60 103 0.9 4.3 0.00 0.00 0.00 94 967.7
20260831035213 60 103 0.9 4.3 0.00 0.00 0.00 94 967.8
20260831034758 60 103 1.7 4.3 0.00 0.00 0.00 94 968.0
20260831034313 60 107 1.7 4.3 0.00 0.00 0.00 94 968.2
20260831033823 60 105 7.0 4.3 0.00 0.00 0.00 94 968.3
20260831033353 60 105 7.0 4.3 0.00 0.00 0.00 94 968.5
20260831032923 60 105 0.9 11.3 0.00 0.00 0.00 88 968.4
20260831032503 60 105 0.9 4.3 0.00 0.00 0.00 88 968.8
20260831032047 60 231 0.9 21.7 0.00 0.00 0.00 88 968.9
20260831031558 60 250 0.9 11.3 0.00 0.00 0.00 88 968.1
20260831031113 61 102 0.9 2.6 0.00 0.00 0.00 86 967.2
20260831030613 61 102 0.9 2.6 0.00 0.00 0.00 85 966.4
20260831030128 61 239 0.9 2.6 0.00 0.00 0.00 85 966.3
20260831025658 61 239 0.0 2.6 0.00 0.00 0.00 85 966.8
20260831025228 61 239 2.6 4.3 0.00 0.00 0.00 85 966.8
20260831024759 61 239 2.6 2.6 0.00 0.00 0.00 85 966.7
20260831024338 61 239 0.9 0.9 0.00 0.00 0.00 85 966.8
20260831023923 61 239 0.9 0.9 0.00 0.00 0.00 85 966.8
20260831023438 61 239 0.0 2.6 0.00 0.00 0.00 85 966.6
20260831022958 61 239 0.0 0.9 0.00 0.00 0.00 85 966.8
20260831022518 61 239 0.0 2.6 0.00 0.00 0.00 85 966.8
20260831022023 61 239 0.0 0.0 0.00 0.00 0.00 85 966.9
20260831021553 60 239 0.0 0.9 0.00 0.00 0.00 85 967.1
20260831021138 60 239 0.0 0.9 0.00 0.00 0.00 85 966.9
20260831020719 60 239 0.0 0.0 0.00 0.00 0.00 85 967.4
20260831020239 60 239 0.0 0.0 0.00 0.00 0.00 85 967.0
20260831015758 60 239 0.0 0.9 0.00 0.00 0.00 85 967.1
20260831015305 60 239 0.0 0.9 0.00 0.00 0.00 85 967.1
20260831014833 60 239 0.0 0.9 0.00 0.00 0.00 85 967.1
20260831014358 60 239 0.0 0.9 0.00 0.00 0.00 85 967.2
20260831013933 60 239 0.0 0.9 0.00 0.00 0.00 85 967.3
20260831013508 60 239 0.0 0.9 0.00 0.00 0.00 85 967.4
20260831013023 59 239 0.9 0.9 0.00 0.00 0.00 85 967.4
20260831012619 59 239 0.0 2.6 0.00 0.00 0.00 85 967.2
20260831012203 59 239 0.0 0.9 0.00 0.00 0.00 85 967.5
20260831011739 59 239 0.9 0.0 0.00 0.00 0.00 85 967.6
20260831011318 59 239 1.7 0.0 0.00 0.00 0.00 88 967.4
20260831010858 58 239 0.0 0.0 0.00 0.00 0.00 88 967.7
20260831010419 58 239 0.0 0.9 0.00 0.00 0.00 88 967.5
20260831005933 58 239 0.0 0.9 0.00 0.00 0.00 88 967.6
20260831005458 58 239 0.0 0.0 0.00 0.00 0.00 88 967.7
20260831005019 58 239 0.0 2.6 0.00 0.00 0.00 88 967.9
20260831004538 58 239 0.0 2.6 0.00 0.00 0.00 88 967.9
20260831004113 58 239 0.0 0.9 0.00 0.00 0.00 88 968.1
20260831003643 58 239 0.9 2.6 0.00 0.00 0.00 88 968.0
20260831003213 58 239 0.0 0.0 0.00 0.00 0.00 89 968.1
20260831002728 58 239 0.0 0.0 0.00 0.00 0.00 88 968.1
20260831002253 58 282 0.0 0.9 0.00 0.00 0.00 88 968.2
20260831001843 58 282 0.0 0.9 0.00 0.00 0.00 88 968.2
20260831001419 58 282 0.0 0.9 0.00 0.00 0.00 86 968.4
20260831000958 58 282 0.0 0.9 0.00 0.00 0.00 86 968.5
20260831000533 58 282 0.0 0.9 0.00 0.00 0.00 86 968.3
20260831000119 57 282 0.0 0.9 0.00 0.00 0.00 86 968.2
20260830235643 57 282 0.0 0.9 0.00 0.00 0.00 86 968.4
20260830235203 59 282 0.0 0.9 0.00 0.00 0.00 86 968.4
20260830234748 59 282 0.0 0.9 0.00 0.00 0.00 86 968.6
20260830234318 59 282 0.0 0.9 0.00 0.00 0.00 86 968.5
20260830233858 59 282 0.0 0.9 0.00 0.00 0.00 86 968.5
20260830233448 59 282 0.9 0.9 0.00 0.00 0.00 86 968.5
20260830233023 58 282 0.9 0.9 0.00 0.00 0.00 86 968.6
20260830232608 58 282 0.9 0.9 0.00 0.00 0.00 86 968.4
20260830232123 58 282 0.0 0.9 0.00 0.00 0.00 86 968.7
20260830231708 58 282 0.0 0.9 0.00 0.00 0.00 86 968.7
20260830231223 59 282 0.0 0.9 0.00 0.00 0.00 86 968.6
20260830230808 59 282 0.0 0.9 0.00 0.00 0.00 86 968.6
20260830230333 60 282 0.0 0.9 0.00 0.00 0.00 85 968.8
20260830225843 60 282 0.0 0.9 0.00 0.00 0.00 81 968.8
20260830225403 60 282 0.0 0.9 0.00 0.00 0.00 81 968.7
20260830224939 60 282 0.0 0.9 0.00 0.00 0.00 81 968.9
20260830224459 60 282 0.0 0.9 0.00 0.00 0.00 81 968.7
20260830224026 60 282 0.0 0.9 0.00 0.00 0.00 81 968.8
20260830223548 60 282 0.0 0.9 0.00 0.00 0.00 81 968.7
20260830223108 60 282 0.9 0.9 0.00 0.00 0.00 81 968.8
20260830222638 60 282 0.0 0.9 0.00 0.00 0.00 81 969.0
20260830222213 60 282 0.0 0.9 0.00 0.00 0.00 81 969.0
20260830221753 60 282 0.0 0.0 0.00 0.00 0.00 81 968.9
20260830221308 60 282 0.0 0.0 0.00 0.00 0.00 81 968.8
20260830220848 60 282 0.0 0.0 0.00 0.00 0.00 81 968.9
20260830220353 60 282 0.9 0.9 0.00 0.00 0.00 81 968.8
20260830215918 60 282 0.9 0.9 0.00 0.00 0.00 81 969.0
20260830215423 61 282 0.9 0.9 0.00 0.00 0.00 81 968.9
20260830215018 61 282 0.9 0.9 0.00 0.00 0.00 74 969.0
20260830214539 61 282 0.0 0.9 0.00 0.00 0.00 74 968.8
20260830214138 62 282 0.0 0.9 0.00 0.00 0.00 74 968.8
20260830213713 62 282 0.0 0.9 0.00 0.00 0.00 74 968.7
20260830213233 63 282 0.0 0.9 0.00 0.00 0.00 74 968.9
20260830212818 63 282 0.0 0.9 0.00 0.00 0.00 74 968.7
20260830212328 63 282 0.9 0.9 0.00 0.00 0.00 74 968.8
20260830211859 63 282 0.9 0.9 0.00 0.00 0.00 74 968.8
20260830211433 63 282 0.0 0.9 0.00 0.00 0.00 74 968.8
20260830211008 63 282 0.9 0.9 0.00 0.00 0.00 74 969.1
20260830210543 63 282 1.7 0.9 0.00 0.00 0.00 74 968.7
20260830210113 63 282 0.9 0.9 0.00 0.00 0.00 74 968.9
20260830205658 63 282 0.9 0.9 0.00 0.00 0.00 74 968.9
20260830205228 65 282 0.0 0.9 0.00 0.00 0.00 74 969.0
20260830204739 65 282 0.0 0.9 0.00 0.00 0.00 74 968.8
20260830204318 65 261 0.9 0.9 0.00 0.00 0.00 74 969.0
20260830203838 65 261 0.9 0.9 0.00 0.00 0.00 74 968.6
20260830203348 65 261 1.7 0.9 0.00 0.00 0.00 74 968.8
20260830202919 65 261 1.7 0.9 0.00 0.00 0.00 63 968.6
20260830202518 65 261 0.9 0.9 0.00 0.00 0.00 63 968.9
20260830202038 65 261 0.9 0.9 0.00 0.00 0.00 63 968.9
20260830201558 65 261 1.7 0.9 0.00 0.00 0.00 63 968.7
20260830201133 65 261 1.7 2.6 0.00 0.00 0.00 63 969.0
20260830200713 65 261 0.0 2.6 0.00 0.00 0.00 63 969.0
20260830200243 65 261 0.0 2.6 0.00 0.00 0.00 63 969.1
20260830195823 65 261 0.0 2.6 0.00 0.00 0.00 63 969.0
20260830195353 65 261 0.9 2.6 0.00 0.00 0.00 63 969.0
20260830194918 66 261 0.9 2.6 0.00 0.00 0.00 63 968.9
20260830194438 66 261 0.9 2.6 0.00 0.00 0.00 63 969.0
20260830194018 66 261 0.9 0.9 0.00 0.00 0.00 63 968.8
20260830193553 66 261 0.9 0.9 0.00 0.00 0.00 63 969.0
20260830193058 66 259 0.9 0.9 0.00 0.00 0.00 63 969.0
20260830192629 67 259 1.7 2.6 0.00 0.00 0.00 63 968.9
20260830192139 67 165 0.9 2.6 0.00 0.00 0.00 63 968.9
20260830191653 67 165 1.7 0.9 0.00 0.00 0.00 63 969.1
20260830191213 68 165 0.9 2.6 0.00 0.00 0.00 63 969.0
20260830190743 68 165 0.9 2.6 0.00 0.00 0.00 63 968.8
20260830190246 69 180 0.0 2.6 0.00 0.00 0.00 63 968.9
20260830185758 69 180 0.9 2.6 0.00 0.00 0.00 63 968.9
20260830185300 69 180 0.0 0.9 0.00 0.00 0.00 59 969.0
20260830184839 69 180 0.0 0.9 0.00 0.00 0.00 59 968.7
20260830184403 71 180 0.0 0.9 0.00 0.00 0.00 59 968.8
20260830183944 71 180 0.9 0.9 0.00 0.00 0.00 59 968.8
20260830183508 71 180 0.0 0.9 0.00 0.00 0.00 59 968.7
20260830183033 71 180 0.0 0.9 0.00 0.00 0.00 51 968.5
20260830182628 71 180 0.0 0.9 0.00 0.00 0.00 51 968.7
20260830182158 71 180 0.0 0.9 0.00 0.00 0.00 51 968.5
20260830181748 72 180 0.0 0.9 0.00 0.00 0.00 51 968.7
20260830181253 72 180 0.0 0.0 0.00 0.00 0.00 51 968.3
20260830180818 72 180 0.9 0.0 0.00 0.00 0.00 51 968.3
20260830180348 72 180 1.7 0.0 0.00 0.00 0.00 51 968.3
20260830175910 72 180 1.7 0.9 0.00 0.00 0.00 51 968.4
20260830175443 72 178 0.9 0.9 0.00 0.00 0.00 51 968.2
20260830175008 74 178 0.0 0.9 0.00 0.00 0.00 51 968.3
20260830174519 74 322 0.0 6.1 0.00 0.00 0.00 51 968.2
20260830174028 74 322 1.7 6.1 0.00 0.00 0.00 51 968.2
20260830173538 74 322 3.5 6.1 0.00 0.00 0.00 51 968.3
20260830173113 74 322 2.6 0.9 0.00 0.00 0.00 51 968.2
20260830172652 74 322 3.5 0.9 0.00 0.00 0.00 51 968.1
20260830172218 74 322 0.9 6.1 0.00 0.00 0.00 51 968.2
20260830171733 74 322 1.7 2.6 0.00 0.00 0.00 47 968.2
20260830171258 74 322 0.9 4.3 0.00 0.00 0.00 47 968.2
20260830170818 74 127 0.9 0.9 0.00 0.00 0.00 47 968.2
20260830170358 75 127 0.9 6.1 0.00 0.00 0.00 47 968.0
20260830165913 75 311 0.0 6.1 0.00 0.00 0.00 47 968.2
20260830165439 75 286 2.6 2.6 0.00 0.00 0.00 46 968.2
20260830165013 75 181 0.9 4.3 0.00 0.00 0.00 45 968.0
20260830164528 75 181 3.5 4.3 0.00 0.00 0.00 45 967.9
20260830164048 75 231 3.5 11.3 0.00 0.00 0.00 45 968.1
20260830163628 75 266 0.9 2.6 0.00 0.00 0.00 44 968.0
20260830163200 75 329 3.5 4.3 0.00 0.00 0.00 44 968.1
20260830162728 75 329 3.5 4.3 0.00 0.00 0.00 45 968.1
20260830162308 75 329 0.9 4.3 0.00 0.00 0.00 45 968.2
20260830161848 75 329 1.7 4.3 0.00 0.00 0.00 41 968.1
20260830161418 75 329 0.9 4.3 0.00 0.00 0.00 41 968.1
20260830160933 75 329 1.7 2.6 0.00 0.00 0.00 41 968.1
20260830160503 77 329 2.6 2.6 0.00 0.00 0.00 41 968.1
20260830160028 77 329 2.6 11.3 0.00 0.00 0.00 41 967.9
20260830155549 77 329 7.0 11.3 0.00 0.00 0.00 41 968.2
20260830155059 77 329 1.7 11.3 0.00 0.00 0.00 41 968.2
20260830154638 77 298 4.3 12.2 0.00 0.00 0.00 41 968.5
20260830154203 77 114 7.8 17.4 0.00 0.00 0.00 41 967.9
20260830153728 76 101 7.8 9.6 0.00 0.00 0.00 41 968.2
20260830153313 76 168 3.5 9.6 0.00 0.00 0.00 41 968.2
20260830152839 76 238 4.3 11.3 0.00 0.00 0.00 41 968.3
20260830152403 76 277 5.2 12.2 0.00 0.00 0.00 41 968.3
20260830151938 76 277 6.1 13.9 0.00 0.00 0.00 41 968.3
20260830151513 76 227 6.1 12.2 0.00 0.00 0.00 41 968.3
20260830151028 75 331 3.5 11.3 0.00 0.00 0.00 41 968.4
20260830150553 75 331 16.5 12.2 0.00 0.00 0.00 41 968.3
20260830150128 76 357 3.5 12.2 0.00 0.00 0.00 41 968.0
20260830145648 76 357 3.5 12.2 0.00 0.00 0.00 41 968.3
20260830145208 76 357 3.5 17.4 0.00 0.00 0.00 41 968.4
20260830144758 76 42 7.0 13.9 0.00 0.00 0.00 41 968.2
20260830144333 76 42 3.5 7.8 0.00 0.00 0.00 39 968.2
20260830143848 77 246 4.3 15.6 0.00 0.00 0.00 39 968.4
20260830143413 77 203 11.3 9.6 0.00 0.00 0.00 41 968.3
20260830143003 77 203 0.9 9.6 0.00 0.00 0.00 41 968.5
20260830142558 77 71 11.3 12.2 0.00 0.00 0.00 41 968.4
20260830142123 77 99 6.1 19.1 0.00 0.00 0.00 41 968.4
20260830141643 77 101 6.1 13.9 0.00 0.00 0.00 41 968.3
20260830141213 77 101 3.5 15.6 0.00 0.00 0.00 41 968.8
20260830140743 77 101 7.8 15.6 0.00 0.00 0.00 41 968.3
20260830140328 77 101 9.6 17.4 0.00 0.00 0.00 41 968.5
20260830135838 77 330 7.0 17.4 0.00 0.00 0.00 44 968.4
20260830135418 76 287 5.2 17.4 0.00 0.00 0.00 44 968.3
20260830134928 78 287 9.6 13.9 0.00 0.00 0.00 44 968.3
20260830134439 78 1 2.6 12.2 0.00 0.00 0.00 44 968.3
20260830134013 77 333 2.6 20.0 0.00 0.00 0.00 44 968.6
20260830133538 77 154 2.6 13.9 0.00 0.00 0.00 44 968.5
20260830133049 77 190 8.7 13.9 0.00 0.00 0.00 44 968.5
20260830132619 77 117 6.1 11.3 0.00 0.00 0.00 44 968.6
20260830132148 77 117 6.1 9.6 0.00 0.00 0.00 44 968.5
20260830131713 76 233 7.8 11.3 0.00 0.00 0.00 44 968.6
20260830131223 76 233 7.8 12.2 0.00 0.00 0.00 44 968.6
20260830130745 75 336 5.2 15.6 0.00 0.00 0.00 44 968.5
20260830130318 75 109 8.7 21.7 0.00 0.00 0.00 44 968.5
20260830125838 74 228 8.7 9.6 0.00 0.00 0.00 44 968.8
20260830125359 74 303 6.1 17.4 0.00 0.00 0.00 44 968.8
20260830124953 76 288 6.1 4.3 0.00 0.00 0.00 44 968.4
20260830124533 77 288 1.7 9.6 0.00 0.00 0.00 41 968.8
20260830124103 75 288 3.5 9.6 0.00 0.00 0.00 41 968.6
20260830123638 75 198 9.6 13.9 0.00 0.00 0.00 41 968.9
20260830123153 76 198 6.1 19.1 0.00 0.00 0.00 41 968.8
20260830122728 76 198 7.0 20.0 0.00 0.00 0.00 41 968.8
20260830122252 76 304 7.0 17.4 0.00 0.00 0.00 45 968.5
20260830121819 76 143 7.0 12.2 0.00 0.00 0.00 45 968.8
20260830121353 76 338 6.1 12.2 0.00 0.00 0.00 45 968.6
20260830120858 76 338 6.1 9.6 0.00 0.00 0.00 45 968.7
20260830120413 76 314 1.7 13.9 0.00 0.00 0.00 45 968.8
20260830115938 76 314 9.6 19.1 0.00 0.00 0.00 45 968.8
20260830115458 75 122 9.6 19.1 0.00 0.00 0.00 46 968.6
20260830115024 75 122 5.2 19.1 0.00 0.00 0.00 46 968.9
20260830114606 75 179 7.8 17.4 0.00 0.00 0.00 46 969.0
20260830114153 75 337 1.7 15.6 0.00 0.00 0.00 100 968.8
20260830113659 75 0 1.7 13.9 0.00 0.00 0.00 100 968.8
20260830113233 75 0 1.7 9.6 0.00 0.00 0.00 100 968.8
20260830112738 74 129 4.3 17.4 0.00 0.00 0.00 48 968.8
20260830112253 74 129 4.3 17.4 0.00 0.00 0.00 48 969.1
20260830111819 73 97 5.2 17.4 0.00 0.00 0.00 48 968.8
20260830111353 73 322 3.5 7.8 0.00 0.00 0.00 48 969.0
20260830110938 73 299 13.9 7.8 0.00 0.00 0.00 47 968.9
20260830110453 73 299 5.2 7.8 0.00 0.00 0.00 47 968.8
20260830110033 73 299 2.6 15.6 0.00 0.00 0.00 47 968.9
20260830105548 73 299 4.3 17.4 0.00 0.00 0.00 47 968.7
20260830105133 73 299 12.2 17.4 0.00 0.00 0.00 47 968.6
20260830104648 73 128 6.1 20.0 0.00 0.00 0.00 47 969.3
20260830104208 74 155 6.1 20.0 0.00 0.00 0.00 50 969.0
20260830103738 73 291 6.1 21.7 0.00 0.00 0.00 50 968.9